Location: Newark
(42.3578°N, 71.0617°W)
Time: 00:26:29
(UTC+00:00)

ISS - Visible Passes

Search period start: 26 September 2020 00:00
Search period end: 06 October 2020 00:00
Orbit: 419 x 420 km, 51.6° (Epoch: 26 September)

Date Brightness Start Highest point End Pass type
(mag) Time Alt. Az. Time Alt. Az. Time Alt. Az.
26 Sep -0.6 01:13:17 10° NW 01:13:59 13° NNW 01:13:59 13° NNW visible
27 Sep -1.5 00:25:51 10° NW 00:28:13 17° N 00:28:21 17° N visible
27 Sep -1.4 23:38:18 10° NW 23:40:35 17° N 23:42:42 11° NE visible
28 Sep -0.5 01:15:11 10° NW 01:15:40 13° NW 01:15:40 13° NW visible
29 Sep -1.7 00:27:51 10° NW 00:30:01 22° N 00:30:01 22° N visible
29 Sep -1.8 23:40:28 10° NW 23:43:01 19° NNE 23:44:23 16° NE visible
30 Sep -0.4 01:16:59 10° NW 01:17:20 12° NW 01:17:20 12° NW visible
30 Sep -1.6 22:53:00 10° NW 22:55:22 17° N 22:57:44 10° NE visible
01 Oct -2.1 00:29:38 10° NW 00:31:43 29° NNW 00:31:43 29° NNW visible
01 Oct -2.5 23:42:17 10° NW 23:45:17 29° NNE 23:46:08 25° NE visible
02 Oct -0.2 01:18:57 10° WNW 01:19:06 11° WNW 01:19:06 11° WNW visible
02 Oct -2.1 22:54:54 10° NW 22:57:41 23° NNE 23:00:27 10° ENE visible
03 Oct -2.2 00:31:26 10° WNW 00:33:34 36° WNW 00:33:34 36° WNW visible
03 Oct -3.6 23:44:00 10° NW 23:47:21 60° NNE 23:48:05 46° E visible
04 Oct -3.0 22:56:36 10° NW 22:59:49 40° NNE 23:02:40 12° E visible
05 Oct -1.6 00:33:34 10° WNW 00:35:39 25° WSW 00:35:39 25° WSW visible
05 Oct -3.1 23:45:53 10° WNW 23:49:10 49° SW 23:50:21 32° SSE visible
